Regional Weather Roundup
Issued by NWS

Home | Current Version | Previous Version | Graphics & Text | Print | Product List | Glossary On
Versions: 1 2 3 4 5 6 7 8 9 10 11 12 13 14 15 16 17 18 19 20 21 22 23 24 25 26 27 28 29 30 31 32 33 34 35 36 37 38 39 40 41 42 43 44 45 46 47 48 49 50
670
ASUS43 KMKX 160420
RWRWI

WISCONSIN REGIONAL WEATHER ROUNDUP
NATIONAL WEATHER SERVICE MILWAUKEE/SULLIVAN WI
1000 PM CST SUN JAN 15 2017

NOTE: "FAIR" INDICATES FEW OR NO CLOUDS BELOW 12,000 FEET WITH NO
SIGNIFICANT WEATHER AND/OR OBSTRUCTIONS TO VISIBILITY.

WIZ001-002-006>008-014>016-023>028-160500-
NORTHWEST WISCONSIN

CITY           SKY/WX    TMP DP  RH WIND       PRES   REMARKS
SUPERIOR ARPT  CLOUDY    23  16  74 SW8       30.15S WCI  14
ASHLAND        CLOUDY    23  13  65 SW10      30.15R WCI  12
HAYWARD        CLOUDY    13   8  81 S3        30.17F
SIREN          CLOUDY    18  15  86 S5        30.19S WCI  11
CUMBERLAND     CLOUDY    12   9  85 CALM      30.20S
RICE LAKE      CLOUDY     2  -1  86 CALM      30.22S
CHETEK         CLOUDY     3   1  88 MISG      30.22S
LADYSMITH      CLOUDY    10   5  81 CALM      30.22F
EAU CLAIRE     PTCLDY    14  11  87 CALM      30.24R
MENOMONIE      PTCLDY    10   7  89 E3        30.24S
NEW RICHMOND   CLOUDY    14  13  95 S5        30.23R WCI   7
OSCEOLA        CLOUDY    17  14  86 S6        30.25S WCI   9
$$

WIZ003>005-009-010-017-018-160500-
NORTH CENTRAL WISCONSIN

CITY           SKY/WX    TMP DP  RH WIND       PRES   REMARKS
MANITOWISH WTR PTCLDY    16   9  74 SW7       30.15S WCI   6
ARBOR VITAE    CLOUDY    17  10  75 S6        30.16F WCI   8
WOODRUFF       CLOUDY    17  10  75 S6        30.16F WCI   8
RHINELANDER    CLOUDY    17   9  70 SW8       30.18S WCI   7
EAGLE RIVER    CLEAR     18   9  68 SW6       30.15F WCI   9
LAND O LAKES   CLOUDY    19  11  70 S3        30.16S
PHILLIPS       CLOUDY    14   8  78 S3        30.18S
TOMAHAWK       CLOUDY    13   8  80 CALM      30.20F
MEDFORD        PTCLDY    13   9  82 S6        30.20S WCI   4
MERRILL        PTCLDY    -1  -4  85 CALM        N/A
$$

WIZ029-030-035-036-043>047-160500-
CENTRAL WISCONSIN

CITY           SKY/WX    TMP DP  RH WIND       PRES   REMARKS
WAUSAU         CLOUDY     4   3  96 CALM      30.23S
MOSINEE        CLEAR     12  12 100 CALM      30.24S
MARSHFIELD     CLOUDY    10   8  92 SW3       30.22S FOG
STEVENS POINT  CLOUDY     3   1  89 CALM      30.26S
WAUPACA        PTCLDY    11   7  85 CALM      30.28S
WAUTOMA        CLOUDY     8   6  92 CALM      30.28F
WISC RAPIDS    CLOUDY     9   6  88 CALM      30.27S
CAMP DOUGLAS   CLOUDY    11   8  87 CALM      30.26S
$$

WIZ011>013-019>022-031-037>040-048>050-160500-
NORTHEAST WISCONSIN

CITY           SKY/WX    TMP DP  RH WIND       PRES   REMARKS
ANTIGO         CLOUDY     3   1  89 CALM      30.20F
SHAWANO        CLOUDY    15  10  81 CALM      30.27S
OCONTO         PTCLDY    17   9  72 SW3       30.26F
STURGEON BAY   CLOUDY    17  10  74 SW7       30.27S WCI   8
GREEN BAY      CLOUDY    15  11  83 SW6       30.28F WCI   6
MANITOWOC      CLOUDY     9   5  84 CALM      30.30S
APPLETON       PTCLDY    16   9  73 SW8       30.26R WCI   5
CLINTONVILLE   CLOUDY    10   7  85 CALM      30.27S
OSHKOSH        CLOUDY    17  11  77 CALM      30.28S
$$

WIZ032>034-041-042-053>061-160500-
SOUTHWEST WISCONSIN

CITY           SKY/WX    TMP DP  RH WIND       PRES   REMARKS
LA CROSSE      CLOUDY   N/A N/A N/A E7        30.28S
SPARTA         CLOUDY    10   8  93 CALM      30.28S
VIROQUA        CLOUDY    23  16  73 CALM      30.24F
BOSCOBEL       CLOUDY    19  15  84 CALM      30.30S FOG
PRAIRIE DU CHI CLOUDY    22  16  79 CALM      30.29S
PLATTEVILLE    CLOUDY    27  22  80 SE5       30.28S WCI  22
$$

WIZ056-057-062-063-064-067-068-160500-
SOUTH CENTRAL WISCONSIN

CITY           SKY/WX    TMP DP  RH WIND       PRES   REMARKS
REEDSBURG      CLOUDY    17  14  87 CALM      30.28R
BARABOO/DELLS  CLOUDY    20  14  76 CALM      30.27S
LONE ROCK      CLOUDY    18  14  84 CALM      30.29F
MINERAL POINT  PTCLDY    27  21  80 SE3       30.26S
MADISON        MOCLDY    21  16  81 CALM      30.28F
MIDDLETON      PTCLDY    23  19  85 CALM      30.28F
WATERTOWN      CLOUDY    20  17  89 CALM      30.29S
MONROE         PTCLDY    28  19  69 SE5       30.27S WCI  23
JANESVILLE     CLOUDY    27  21  80 CALM      30.29F
$$

WIZ051-052-058>065-066-070>072-160500-
SOUTHEAST WISCONSIN

CITY           SKY/WX    TMP DP  RH WIND       PRES   REMARKS
MILWAUKEE      CLOUDY    27  19  72 S5        30.30F WCI  22
WAUKESHA       CLOUDY    25  18  74 CALM      30.30S
MILWAUKEE/TIMM CLOUDY    23  18  80 CALM      30.31S
RACINE         CLOUDY    24  19  81 S6        30.32F HAZE    WCI  17
KENOSHA        CLOUDY    22  19  89 CALM      30.31S FOG
FOND DU LAC    CLOUDY    10   4  76 CALM      30.28F
SHEBOYGAN      CLOUDY    15   9  76 CALM      30.29F
WEST BEND      CLOUDY    18  14  86 CALM      30.28F
JUNEAU         CLOUDY    21  15  77 SE3       30.29S
$$

LSZ147-162-160500-
LAKE SUPERIOR

STATION/POSITION TIME  TEMP    WIND        PRES    WAVE
                       AIR SEA DIR/SP/G            HT/PER
                 (UTC) (F)     (DEG/KT/KT) (MB)    (FT/S)
DEVILS ISLAND    0400   29     240/ 21/ 27 1021.0R
PORT WING        0330   26     200/  9/ 12 1021.0R
SAXON HARBOR     0330   28     190/ 10/ 19 1020.0R
$$

LMZ867-665-643>646-160500-
LAKE MICHIGAN

STATION/POSITION TIME  TEMP    WIND        PRES    WAVE
                       AIR SEA DIR/SP/G            HT/PER
                 (UTC) (F)     (DEG/KT/KT) (MB)    (FT/S)
NORTHPORT PIER   0402   23      CALM  /  8 1024.0
SISTER BAY       0350   24     220/  9/ 12   N/A
ALGOMA LAKESHORE 0323          210/  9/ 11   N/A
KEWAUNEE LAKESHO 0354   19     190/  3/  5 1024.9F
SHEBOYGAN LAKESH 0400   27     240/  6/  6 1026.8F
PORT WASHINGTON  0340   25      CALM  /  4 1027.1S
MILWAUKEE LAKESH 0400   29     210/  4/  5   N/A
KENOSHA   LAKESH 0400   29     220/  3/  5 1026.8
$$

TC  - TEMPERATURE IN CELSIUS
VSB - VISIBILITY IN STATUTE MILES
WCI - WIND CHILL INDEX
HX  - HEAT INDEX





USA.gov is the U.S. government's official web portal to all federal, state and local government web resources and services.